Location: Cardiff
(53.7833°N, 113.6000°W)
Time: 14:22:01
(UTC+00:00)

RS-15 - Pass Details

Date: 12 December 2023
Orbit: 1893 x 2151 km, 64.8° (Epoch: 20 February)

Event Time Altitude Azimuth Distance (km) Brightness Sun altitude
Rises 00:10:54 0° 139° (SE) 5,649 10.3 -7.9°
Reaches altitude 10° 00:16:54 10° 117° (ESE) 4,623 9.7 -8.6°
Maximum altitude 00:22:05 14° 91° (E) 4,265 9.3 -9.3°
Enters shadow 00:26:22 11° 68° (ENE) 4,468 9.2 -9.9°
